カタログに戻る

STARLINK-34495

運用中通信VLEO
NORAD 64428·PAYLOAD·🇺🇸 United States

打ち上げ Jun 17, 2025 から Vandenberg Space Force Base

Loading…

次のパス (今後24時間)

TLE

最新Source: CelesTrak SupGP

元期: Sep 14, 2026, 20:48 UTC

1 64428C 25129S   26257.86715278 -.00022022  00000+0 -76647-3 0  2578
2 64428  69.9993 315.7516 0003335 270.6179 228.8741 15.29572531    18

AllMySatでSTARLINK-34495をリアルタイム追跡

Download on the App Store